SCP
-0 0 0 0 -0 0 -0 -0 0 -0 0 0 0 0 0 0 0 0 0 0 0 0 0 0 0 0 0 0 0 0 0 0 0 0 0 0 0 0 0 0 0 0 0 0
0 -0 0 0 -0 0 0 0 -0 0 0 0 0 0 0 0 0 0 0 0 0 0 0 0 0 0 0 0 0 0 0 0 0 0 0 0 0 0 0 0 0 0 0 0
-0 -0 0 0 -0 0 0 0 0 0 0 0 0 0 0 0 0 0 0 0 0 0 0 0 0 0 0 0 0 0 0 0 0 0 0 0 0 0 0 0 0 0 0 0
-0 0 0 0 0 0 0 0 0 0 0 0 0 0 0 0 0 0 0 0 0 0 0 0 0 0 0 0 0 0 0 0 0 0 0 0 0 0 0 0 0 0 0 0
0 0 -0 0 0 0 0 0 0 0 0 0 0 0 0 0 0 0 0 0 0 0 0 0 0 0 0 0 0 0 0 0 0 0 0 0 0 0 0 0 0 0 0 0
0 0 -0 0 0 0 0 0 0 0 0 0 0 0 0 0 0 0 0 0 0 0 0 0 0 0 0 0 0 0 0 0 0 0 0 0 0 0 0 0 0 0 0 0
-0 0 0 0 0 0 0 0 0 0 0 0 0 1 0 0 0 0 0 0 0 0 0 0 0 0 0 0 0 0 0 0 0 0 0 0 0 0 0 0 0 0 0 0
0 0 0 0 0 0 0 0 0 0 0 0 0 0 0 0 0 0 0 0 0 0 0 0 0 0 0 0 0 0 0 0 0 0 0 0 0 0 0 0 0 0 0 0
0 0 0 0 1 0 0 0 0 0 0 0 0 0 0 0 0 0 0 0 0 0 0 0 0 0 0 0 0 0 0 0 0 0 0 0 0 0 0 0 0 0 0 0
0 0 0 0 0 0 0 0 0 0 0 0 0 0 0 0 0 0 0 0 0 0 0 0 0 0 0 0 0 0 0 0 0 0 0 0 0 0 0 0 0 0 0 0
0 0 0 0 0 0 0 0 0 0 0 0 0 0 0 0 0 0 0 0 0 0 0 0 0 0 0 0 0 0 0 0 0 0 0 0 0 0 0 0 0 0 0 0
0 1 1 1 0 0 0 0 0 0 0 0 0 0 0 0 0 0 0 0 0 0 0 0 0 0 0 0 0 0 0 0 0 0 0 0 0 0 0 0 0 0 0 0
0 0 0 0 0 0 0 0 0 0 0 0 0 0 0 0 0 0 0 0 0 0 0 0 0 0 0 0 0 0 0 0 0 0 0 0 0 0 0 0 0 0 0 0
0 0 0 0 0 0 0 0 0 0 0 0 0 0 0 0 0 0 0 0 0 0 0 0 0 0 0 0 0 0 0 0 0 0 0 0 0 0 0 0 0 0 0 0
0 0 0 0 0 0 0 0 0 0 0 0 0 0 0 0 0 0 0 0 0 0 0 0 0 0 0 0 0 0 0 0 0 0 0 0 0 0 0 0 0 0 0 0
0 0 0 0 0 0 0 0 0 0 0 0 0 0 0 0 1 0 0 0 0 0 0 0 0 0 0 0 1 0 0 0 0 0 0 0 0 0 0 0 0 0 0 0
0 0 0 0 0 0 0 0 0 0 0 0 1 1 1 1 1 1 0 0 0 0 1 1 1 0 0 1 1 0 0 0 0 0 0 0 0 0 0 0 0 0 0 0
0 0 0 0 0 0 0 0 0 0 0 0 1 1 1 1 1 1 1 1 1 1 1 1 1 1 1 1 1 1 0 0 0 0 0 0 0 0 0 0 0 0 0 0
0 0 0 0 0 0 0 0 0 0 0 0 0 0 0 0 1 1 1 1 1 1 1 1 1 0 1 0 0 0 0 0 0 0 0 0 0 0 0 0 0 0 0 0
0 -0 0 0 0 0 0 0 0 0 0 0 0 0 0 0 0 0 0 1 1 1 2 2 1 1 1 1 0 0 0 0 0 0 0 0 0 0 0 0 0 0 0 0
0 0 0 0 0 0 0 0 0 0 0 0 0 0 0 0 0 0 0 0 1 1 1 1 1 1 1 0 0 0 0 0 0 0 0 0 1 0 0 0 0 0 0 0
0 0 0 0 0 0 0 0 0 0 0 0 0 0 0 0 0 0 0 1 1 0 0 1 1 0 0 0 0 0 0 1 1 0 0 0 0 1 0 0 0 0 0 0
0 0 0 0 0 0 0 0 0 0 0 0 0 0 0 0 0 0 0 0 0 0 0 0 0 0 0 0 0 0 1 1 0 0 0 0 0 0 0 0 0 0 0 0
0 0 0 0 0 0 0 0 0 0 0 0 0 0 0 0 0 0 0 0 0 0 0 0 0 0 0 0 0 0 0 0 0 0 0 0 0 0 0 0 0 0 0 0
0 0 0 0 0 0 0 0 0 0 0 0 0 0 0 0 0 0 0 0 0 0 0 0 0 0 0 0 0 0 0 0 0 0 0 0 0 0 0 0 0 0 0 0
0 0 0 0 0 0 0 0 0 0 0 0 0 0 0 0 0 0 0 0 0 0 0 0 0 0 0 0 0 0 0 0 0 0 0 1 0 0 0 0 0 0 0 0
0 0 0 0 0 0 0 0 0 0 0 0 0 0 0 0 0 0 0 0 0 0 0 0 0 0 0 0 0 0 0 0 0 0 0 0 0 0 0 0 0 1 0 0
Wind_Speed_500mb
13 9 11 16 11 9 15 17 9 17 28 10 8 5 16 20 3 1 18 16 15 13 13 16 17 17 17 18 21 21 21 21 24 27 34 30 34 31 39 32 36 42 42 36
22 17 8 15 12 8 9 3 8 24 19 7 16 32 23 5 2 14 20 14 12 10 10 13 15 16 15 16 18 20 19 18 19 23 26 30 28 27 34 30 35 40 43 40
20 22 10 16 15 14 10 5 8 10 7 13 3 10 5 11 9 17 13 8 6 7 7 9 12 14 15 15 17 19 17 17 18 18 24 29 27 28 31 27 31 34 39 40
19 19 20 16 10 12 5 3 6 6 17 14 15 10 3 18 25 16 10 8 7 9 6 6 9 11 13 14 16 17 14 15 16 16 19 21 26 25 27 26 27 32 34 31
12 14 22 22 13 13 8 10 9 10 13 11 6 4 14 22 22 19 13 9 8 7 6 5 8 10 13 13 16 15 13 14 15 14 17 21 26 27 26 25 24 25 25 31
14 11 23 23 19 16 13 7 17 12 9 6 2 12 21 25 19 18 12 9 9 7 5 2 6 8 13 13 14 14 12 13 13 15 14 17 26 24 28 24 20 19 18 27
17 15 7 17 18 9 5 10 19 15 10 6 11 24 24 19 18 13 11 10 9 6 5 1 5 9 12 13 13 14 12 13 13 15 22 13 25 21 21 27 22 29 20 14
13 11 6 25 8 9 22 27 20 19 10 10 30 19 15 17 14 10 10 5 9 5 6 3 3 7 10 12 11 13 13 12 12 17 19 20 19 21 23 22 23 28 25 17
7 4 10 4 19 34 31 27 22 21 13 9 13 15 16 18 11 8 8 7 7 7 9 7 7 6 8 11 10 11 13 14 13 19 16 26 19 22 23 24 17 20 21 21
5 5 21 12 14 18 19 18 21 23 19 13 17 21 19 20 16 8 10 8 10 8 9 10 11 10 9 9 10 11 14 14 19 19 23 18 25 23 21 26 25 26 21 25
14 13 20 15 21 22 21 19 18 21 19 16 19 22 24 24 19 12 11 11 11 10 10 10 12 11 12 12 13 13 14 18 23 18 21 20 31 22 23 27 29 30 28 23
11 24 26 27 3 21 19 19 21 21 20 16 17 20 24 23 21 17 14 14 14 14 12 10 11 13 14 16 16 15 16 17 17 22 24 30 28 17 30 31 32 30 34 32
9 9 13 10 11 13 17 28 25 24 24 22 17 21 22 24 21 20 19 19 18 17 15 14 13 15 17 20 21 18 19 18 18 20 19 21 27 35 31 27 32 30 34 36
13 17 15 20 21 13 13 18 28 30 28 26 24 25 25 25 29 29 28 25 23 22 22 21 18 18 19 21 26 22 21 22 26 22 26 29 28 28 30 36 33 35 31 36
16 23 21 21 23 17 15 20 23 34 30 33 32 27 27 28 33 32 32 28 29 28 27 24 23 24 25 25 27 27 26 22 22 23 32 28 31 28 28 33 31 36 35 34
20 23 22 22 17 20 6 20 23 29 30 29 33 33 27 29 30 30 30 31 36 37 32 30 32 32 31 34 33 31 28 27 32 33 25 30 28 28 34 29 29 38 37 31
21 19 25 18 16 14 11 12 12 16 23 36 33 24 19 24 25 29 31 33 37 39 35 37 40 36 36 36 38 34 29 29 33 35 28 28 32 31 26 36 39 37 33 36
25 25 25 17 8 1 2 4 10 8 6 5 1 3 11 18 23 27 28 31 35 42 45 45 44 42 42 38 40 38 32 32 32 36 33 33 33 31 46 38 39 47 42 29
23 21 21 13 11 17 15 14 11 9 11 9 4 2 4 9 13 18 25 30 33 42 49 46 50 49 51 52 40 39 37 40 38 41 38 35 37 33 31 38 44 35 38 46
11 18 17 16 17 17 14 13 12 12 11 8 5 5 5 6 10 15 20 27 35 40 42 42 38 49 56 52 45 49 45 45 40 39 40 40 42 45 43 36 36 39 42 39
9 13 22 26 24 19 19 18 18 18 17 17 15 14 14 15 15 19 22 25 28 28 31 39 44 45 39 39 38 40 39 38 39 44 45 43 44 46 42 38 45 41 41 43
18 30 29 29 25 21 21 22 21 20 19 18 17 18 17 16 20 23 24 33 30 33 37 27 31 36 42 39 38 43 51 51 48 50 51 50 44 42 45 41 43 40 39 36
26 29 28 26 24 20 18 18 18 17 17 18 18 22 25 27 23 29 34 38 41 39 38 31 37 40 37 35 45 52 48 54 51 56 59 55 62 49 42 46 53 46 45 44
29 29 27 23 19 14 13 13 13 13 16 18 20 22 27 32 31 30 36 40 40 46 48 44 44 46 51 54 53 51 53 56 58 60 70 59 54 60 60 56 49 35 42 41
28 25 21 17 14 11 9 14 13 15 20 21 26 26 27 31 34 38 38 42 42 45 47 44 49 51 54 58 55 47 44 53 56 57 61 63 66 58 58 68 47 50 33 45
21 16 13 13 10 8 9 13 19 20 22 25 26 29 31 36 37 37 39 40 43 45 44 49 52 57 53 44 43 49 62 57 63 49 52 52 55 55 61 48 43 30 38 51
15 14 7 6 4 9 12 18 22 24 24 26 30 32 34 35 36 36 38 40 42 45 48 53 49 49 55 57 58 53 66 48 57 55 61 65 55 41 32 31 32 41 43 40
Wind_Direction_500mb
283 3 311 312 314 34 2 350 343 4 66 76 153 172 112 106 148 320 82 55 53 50 33 21 16 12 11 3 7 10 5 7 5 354 2 12 11 5 13 23 15 4 12 15
316 271 251 294 289 161 266 12 321 47 25 359 51 101 97 153 203 82 68 55 46 50 39 24 13 9 5 2 6 4 0 4 360 3 353 4 10 2 1 22 17 16 21 10
274 347 301 287 356 130 103 227 62 3 60 48 23 136 144 200 188 91 72 56 49 79 62 35 15 9 5 2 2 358 360 2 359 12 7 2 5 1 2 19 13 30 25 14
276 219 279 109 93 75 30 50 99 10 54 17 333 126 38 121 91 94 104 76 73 91 92 51 17 15 2 5 356 358 6 5 4 8 4 5 356 360 4 11 16 28 27 19
320 279 292 157 120 130 114 84 89 45 38 1 22 27 145 104 97 97 101 108 110 116 106 69 19 17 6 7 355 1 2 5 1 6 7 4 1 4 5 6 19 11 24 21
272 313 289 135 118 121 134 149 90 63 29 38 333 246 97 109 112 118 120 124 131 139 131 80 20 14 4 1 356 1 356 356 353 353 350 351 360 359 3 4 10 356 21 12
246 249 49 101 136 164 248 90 84 82 60 85 79 101 114 116 113 126 138 143 139 147 197 53 13 4 352 350 356 354 354 350 344 348 5 336 350 3 345 6 5 4 10 359
234 253 190 193 172 326 126 120 117 95 64 107 125 140 150 135 129 140 159 153 168 185 222 226 308 337 344 339 347 345 348 342 345 336 345 327 341 349 344 333 336 355 353 333
76 252 297 130 96 133 144 142 135 133 116 139 156 179 178 144 156 160 186 190 206 206 233 229 260 295 334 327 330 332 339 336 335 327 350 7 349 351 344 341 317 337 334 327
266 209 174 182 130 155 183 161 156 156 155 155 172 185 184 162 167 186 194 215 218 220 227 249 257 272 298 314 305 316 316 323 314 325 341 334 346 350 345 339 330 326 318 320
285 304 289 180 191 195 201 182 179 173 182 179 180 189 187 172 179 201 200 212 220 233 237 249 254 267 280 293 295 303 302 304 335 319 327 324 332 308 345 343 327 334 342 304
32 36 23 34 186 175 210 215 196 195 192 193 195 194 189 184 189 197 214 215 218 228 235 242 254 267 272 275 280 287 301 319 303 322 311 310 324 320 325 324 323 329 334 322
43 42 11 358 332 323 240 205 214 209 208 195 200 195 191 184 192 207 214 216 221 228 238 246 250 257 260 264 272 281 285 304 313 310 316 320 310 305 312 322 324 323 326 334
350 320 293 289 285 299 242 272 219 210 207 204 201 200 197 201 203 213 212 214 213 221 227 234 241 252 257 257 268 280 280 286 308 307 309 308 317 321 316 312 311 316 323 323
317 303 286 279 290 283 267 270 257 201 210 204 206 210 214 217 211 221 215 214 217 218 225 233 242 251 255 254 255 268 274 284 282 290 302 310 317 303 301 315 313 314 312 318
315 311 295 257 262 271 260 265 256 218 205 223 213 214 225 230 228 228 222 222 227 229 231 236 244 248 249 251 257 264 274 292 294 288 305 304 307 322 312 306 315 315 311 313
285 286 277 264 253 248 249 256 230 254 234 236 228 196 223 240 238 237 237 238 241 251 249 253 255 255 254 252 262 260 260 269 281 283 288 295 301 308 310 303 306 314 305 314
262 263 274 287 290 10 101 326 331 343 14 36 65 240 238 257 255 254 251 250 252 258 259 261 259 263 258 255 263 263 266 272 277 283 286 285 291 292 308 307 297 304 308 305
250 240 237 243 119 100 101 89 69 64 59 47 24 336 289 284 280 273 269 268 267 265 271 271 277 267 264 267 259 261 268 269 278 280 284 285 290 297 301 300 305 306 302 304
193 197 149 109 114 106 108 106 106 90 75 72 55 31 3 325 310 300 291 281 277 276 276 274 273 274 276 281 266 258 262 269 273 277 280 280 282 289 298 298 295 296 302 299
155 142 137 115 94 95 103 108 105 91 78 71 64 47 25 12 354 336 326 313 306 307 287 288 284 278 269 277 270 274 272 270 269 273 277 280 280 285 288 286 295 297 297 292
129 110 107 108 109 103 99 97 91 83 69 55 41 26 13 359 353 338 329 324 328 306 306 300 289 288 286 272 265 277 275 268 271 278 282 278 282 277 283 286 291 293 297 293
108 113 116 116 115 109 97 83 74 64 51 38 14 359 344 340 337 328 328 320 320 316 310 306 294 291 283 274 279 286 283 272 269 274 272 274 288 273 282 283 288 282 294 299
117 118 120 123 121 108 83 58 49 24 9 360 343 343 332 327 321 317 309 306 307 309 310 312 306 300 296 292 289 286 280 275 279 282 279 288 282 301 295 285 288 311 286 291
130 129 130 131 116 84 51 18 22 350 345 331 332 329 326 321 318 314 315 319 312 311 315 310 307 307 297 289 291 290 291 289 285 286 289 284 289 296 289 286 297 297 271 275
138 135 137 125 107 65 25 2 351 346 335 328 322 322 319 315 319 320 317 317 317 315 313 313 310 314 313 307 300 287 289 296 293 290 294 286 294 287 290 300 282 288 281 280
141 137 133 140 71 2 342 350 340 331 329 324 317 319 322 321 321 321 319 318 319 317 315 314 311 309 307 310 315 305 302 288 291 283 293 291 298 303 317 286 279 277 271 270
Wind_Speed_850mb
13 9 11 16 11 9 15 17 9 17 28 10 8 5 16 20 3 1 18 16 15 13 13 16 17 17 17 18 21 21 21 21 24 27 34 30 34 31 39 32 36 42 42 36
22 17 8 15 12 8 9 3 8 24 19 7 16 32 23 5 2 14 20 14 12 10 10 13 15 16 15 16 18 20 19 18 19 23 26 30 28 27 34 30 35 40 43 40
20 22 10 16 15 14 10 5 8 10 7 13 3 10 5 11 9 17 13 8 6 7 7 9 12 14 15 15 17 19 17 17 18 18 24 29 27 28 31 27 31 34 39 40
19 19 20 16 10 12 5 3 6 6 17 14 15 10 3 18 25 16 10 8 7 9 6 6 9 11 13 14 16 17 14 15 16 16 19 21 26 25 27 26 27 32 34 31
12 14 22 22 13 13 8 10 9 10 13 11 6 4 14 22 22 19 13 9 8 7 6 5 8 10 13 13 16 15 13 14 15 14 17 21 26 27 26 25 24 25 25 31
14 11 23 23 19 16 13 7 17 12 9 6 2 12 21 25 19 18 12 9 9 7 5 2 6 8 13 13 14 14 12 13 13 15 14 17 26 24 28 24 20 19 18 27
17 15 7 17 18 9 5 10 19 15 10 6 11 24 24 19 18 13 11 10 9 6 5 1 5 9 12 13 13 14 12 13 13 15 22 13 25 21 21 27 22 29 20 14
13 11 6 25 8 9 22 27 20 19 10 10 30 19 15 17 14 10 10 5 9 5 6 3 3 7 10 12 11 13 13 12 12 17 19 20 19 21 23 22 23 28 25 17
7 4 10 4 19 34 31 27 22 21 13 9 13 15 16 18 11 8 8 7 7 7 9 7 7 6 8 11 10 11 13 14 13 19 16 26 19 22 23 24 17 20 21 21
5 5 21 12 14 18 19 18 21 23 19 13 17 21 19 20 16 8 10 8 10 8 9 10 11 10 9 9 10 11 14 14 19 19 23 18 25 23 21 26 25 26 21 25
14 13 20 15 21 22 21 19 18 21 19 16 19 22 24 24 19 12 11 11 11 10 10 10 12 11 12 12 13 13 14 18 23 18 21 20 31 22 23 27 29 30 28 23
11 24 26 27 3 21 19 19 21 21 20 16 17 20 24 23 21 17 14 14 14 14 12 10 11 13 14 16 16 15 16 17 17 22 24 30 28 17 30 31 32 30 34 32
9 9 13 10 11 13 17 28 25 24 24 22 17 21 22 24 21 20 19 19 18 17 15 14 13 15 17 20 21 18 19 18 18 20 19 21 27 35 31 27 32 30 34 36
13 17 15 20 21 13 13 18 28 30 28 26 24 25 25 25 29 29 28 25 23 22 22 21 18 18 19 21 26 22 21 22 26 22 26 29 28 28 30 36 33 35 31 36
16 23 21 21 23 17 15 20 23 34 30 33 32 27 27 28 33 32 32 28 29 28 27 24 23 24 25 25 27 27 26 22 22 23 32 28 31 28 28 33 31 36 35 34
20 23 22 22 17 20 6 20 23 29 30 29 33 33 27 29 30 30 30 31 36 37 32 30 32 32 31 34 33 31 28 27 32 33 25 30 28 28 34 29 29 38 37 31
21 19 25 18 16 14 11 12 12 16 23 36 33 24 19 24 25 29 31 33 37 39 35 37 40 36 36 36 38 34 29 29 33 35 28 28 32 31 26 36 39 37 33 36
25 25 25 17 8 1 2 4 10 8 6 5 1 3 11 18 23 27 28 31 35 42 45 45 44 42 42 38 40 38 32 32 32 36 33 33 33 31 46 38 39 47 42 29
23 21 21 13 11 17 15 14 11 9 11 9 4 2 4 9 13 18 25 30 33 42 49 46 50 49 51 52 40 39 37 40 38 41 38 35 37 33 31 38 44 35 38 46
11 18 17 16 17 17 14 13 12 12 11 8 5 5 5 6 10 15 20 27 35 40 42 42 38 49 56 52 45 49 45 45 40 39 40 40 42 45 43 36 36 39 42 39
9 13 22 26 24 19 19 18 18 18 17 17 15 14 14 15 15 19 22 25 28 28 31 39 44 45 39 39 38 40 39 38 39 44 45 43 44 46 42 38 45 41 41 43
18 30 29 29 25 21 21 22 21 20 19 18 17 18 17 16 20 23 24 33 30 33 37 27 31 36 42 39 38 43 51 51 48 50 51 50 44 42 45 41 43 40 39 36
26 29 28 26 24 20 18 18 18 17 17 18 18 22 25 27 23 29 34 38 41 39 38 31 37 40 37 35 45 52 48 54 51 56 59 55 62 49 42 46 53 46 45 44
29 29 27 23 19 14 13 13 13 13 16 18 20 22 27 32 31 30 36 40 40 46 48 44 44 46 51 54 53 51 53 56 58 60 70 59 54 60 60 56 49 35 42 41
28 25 21 17 14 11 9 14 13 15 20 21 26 26 27 31 34 38 38 42 42 45 47 44 49 51 54 58 55 47 44 53 56 57 61 63 66 58 58 68 47 50 33 45
21 16 13 13 10 8 9 13 19 20 22 25 26 29 31 36 37 37 39 40 43 45 44 49 52 57 53 44 43 49 62 57 63 49 52 52 55 55 61 48 43 30 38 51
15 14 7 6 4 9 12 18 22 24 24 26 30 32 34 35 36 36 38 40 42 45 48 53 49 49 55 57 58 53 66 48 57 55 61 65 55 41 32 31 32 41 43 40
Wind_Direction_850mb
283 3 311 312 314 34 2 350 343 4 66 76 153 172 112 106 148 320 82 55 53 50 33 21 16 12 11 3 7 10 5 7 5 354 2 12 11 5 13 23 15 4 12 15
316 271 251 294 289 161 266 12 321 47 25 359 51 101 97 153 203 82 68 55 46 50 39 24 13 9 5 2 6 4 0 4 360 3 353 4 10 2 1 22 17 16 21 10
274 347 301 287 356 130 103 227 62 3 60 48 23 136 144 200 188 91 72 56 49 79 62 35 15 9 5 2 2 358 360 2 359 12 7 2 5 1 2 19 13 30 25 14
276 219 279 109 93 75 30 50 99 10 54 17 333 126 38 121 91 94 104 76 73 91 92 51 17 15 2 5 356 358 6 5 4 8 4 5 356 360 4 11 16 28 27 19
320 279 292 157 120 130 114 84 89 45 38 1 22 27 145 104 97 97 101 108 110 116 106 69 19 17 6 7 355 1 2 5 1 6 7 4 1 4 5 6 19 11 24 21
272 313 289 135 118 121 134 149 90 63 29 38 333 246 97 109 112 118 120 124 131 139 131 80 20 14 4 1 356 1 356 356 353 353 350 351 360 359 3 4 10 356 21 12
246 249 49 101 136 164 248 90 84 82 60 85 79 101 114 116 113 126 138 143 139 147 197 53 13 4 352 350 356 354 354 350 344 348 5 336 350 3 345 6 5 4 10 359
234 253 190 193 172 326 126 120 117 95 64 107 125 140 150 135 129 140 159 153 168 185 222 226 308 337 344 339 347 345 348 342 345 336 345 327 341 349 344 333 336 355 353 333
76 252 297 130 96 133 144 142 135 133 116 139 156 179 178 144 156 160 186 190 206 206 233 229 260 295 334 327 330 332 339 336 335 327 350 7 349 351 344 341 317 337 334 327
266 209 174 182 130 155 183 161 156 156 155 155 172 185 184 162 167 186 194 215 218 220 227 249 257 272 298 314 305 316 316 323 314 325 341 334 346 350 345 339 330 326 318 320
285 304 289 180 191 195 201 182 179 173 182 179 180 189 187 172 179 201 200 212 220 233 237 249 254 267 280 293 295 303 302 304 335 319 327 324 332 308 345 343 327 334 342 304
32 36 23 34 186 175 210 215 196 195 192 193 195 194 189 184 189 197 214 215 218 228 235 242 254 267 272 275 280 287 301 319 303 322 311 310 324 320 325 324 323 329 334 322
43 42 11 358 332 323 240 205 214 209 208 195 200 195 191 184 192 207 214 216 221 228 238 246 250 257 260 264 272 281 285 304 313 310 316 320 310 305 312 322 324 323 326 334
350 320 293 289 285 299 242 272 219 210 207 204 201 200 197 201 203 213 212 214 213 221 227 234 241 252 257 257 268 280 280 286 308 307 309 308 317 321 316 312 311 316 323 323
317 303 286 279 290 283 267 270 257 201 210 204 206 210 214 217 211 221 215 214 217 218 225 233 242 251 255 254 255 268 274 284 282 290 302 310 317 303 301 315 313 314 312 318
315 311 295 257 262 271 260 265 256 218 205 223 213 214 225 230 228 228 222 222 227 229 231 236 244 248 249 251 257 264 274 292 294 288 305 304 307 322 312 306 315 315 311 313
285 286 277 264 253 248 249 256 230 254 234 236 228 196 223 240 238 237 237 238 241 251 249 253 255 255 254 252 262 260 260 269 281 283 288 295 301 308 310 303 306 314 305 314
262 263 274 287 290 10 101 326 331 343 14 36 65 240 238 257 255 254 251 250 252 258 259 261 259 263 258 255 263 263 266 272 277 283 286 285 291 292 308 307 297 304 308 305
250 240 237 243 119 100 101 89 69 64 59 47 24 336 289 284 280 273 269 268 267 265 271 271 277 267 264 267 259 261 268 269 278 280 284 285 290 297 301 300 305 306 302 304
193 197 149 109 114 106 108 106 106 90 75 72 55 31 3 325 310 300 291 281 277 276 276 274 273 274 276 281 266 258 262 269 273 277 280 280 282 289 298 298 295 296 302 299
155 142 137 115 94 95 103 108 105 91 78 71 64 47 25 12 354 336 326 313 306 307 287 288 284 278 269 277 270 274 272 270 269 273 277 280 280 285 288 286 295 297 297 292
129 110 107 108 109 103 99 97 91 83 69 55 41 26 13 359 353 338 329 324 328 306 306 300 289 288 286 272 265 277 275 268 271 278 282 278 282 277 283 286 291 293 297 293
108 113 116 116 115 109 97 83 74 64 51 38 14 359 344 340 337 328 328 320 320 316 310 306 294 291 283 274 279 286 283 272 269 274 272 274 288 273 282 283 288 282 294 299
117 118 120 123 121 108 83 58 49 24 9 360 343 343 332 327 321 317 309 306 307 309 310 312 306 300 296 292 289 286 280 275 279 282 279 288 282 301 295 285 288 311 286 291
130 129 130 131 116 84 51 18 22 350 345 331 332 329 326 321 318 314 315 319 312 311 315 310 307 307 297 289 291 290 291 289 285 286 289 284 289 296 289 286 297 297 271 275
138 135 137 125 107 65 25 2 351 346 335 328 322 322 319 315 319 320 317 317 317 315 313 313 310 314 313 307 300 287 289 296 293 290 294 286 294 287 290 300 282 288 281 280
141 137 133 140 71 2 342 350 340 331 329 324 317 319 322 321 321 321 319 318 319 317 315 314 311 309 307 310 315 305 302 288 291 283 293 291 298 303 317 286 279 277 271 270